Home > Weather > Fosnavåg > Past weeks

Flag for Norway Past Weather in Fosnavåg, Norway — Yesterday and Last 2 Weeks

Now
55 °F

Cool.


Feels Like: 55 °F
Forecast: 54 / 58 °F
Wind: 3 mph from East

Location: Svinoy Fyr

Current Time: Aug 28, 2016 at 2:41:33 AM

Latest Report: Aug 28, 2016 at 2:00 AM


Visibility: N/A

Pressure: 30.11 "Hg

Humidity: 81%

Dew Point: 49 °F

Location of FosnavågLocation

Past Weather in Fosnavåg — Graph

°F

Fosnavåg Temperature Yesterday

Maximum temperature yesterday: 58 °F (at 6:00 PM)
Minimum temperature yesterday: 54 °F (at 2:00 AM)
Average temperature yesterday: 56 °F

High & Low Weather Summary for the Past Weeks

 TemperatureHumidityPressure
High60 °F (Aug 20, 2:00 PM)97% (Aug 21, 10:00 AM)30.29 "Hg (Aug 21, 10:00 AM)
Low53 °F (Aug 15, 7:00 AM)65% (Aug 27, 6:00 PM)29.56 "Hg (Aug 26, 2:00 PM)
Average56 °F87%30.00 "Hg
* Reported Aug 13 1:00 AM — Aug 28 1:00 AM, Fosnavåg, Weather by CustomWeather, © 2016

Note: Actual official high and low records may vary slightly from our data, if they occured in-between our weather recording intervals... More about our weather records

Advertising

Fosnavåg Weather History for the Previous 24 Hours

Scroll right to see more
 ConditionsComfort  
Time TempWeatherWind HumidityBarometerVisibility
1:00 AM
Sun, Aug 28
54 °FCool.3 mph81%30.12 "HgN/A
12:00 AM55 °FCool.2 mph78%30.12 "HgN/A
11:00 PM
Sat, Aug 27
54 °FCool.1 mph77%30.11 "HgN/A
10:00 PM55 °FCool.1 mph76%30.11 "HgN/A
9:00 PM56 °FCool.1 mph74%30.12 "HgN/A
8:00 PM57 °FCool.2 mph69%30.11 "HgN/A
7:00 PM58 °FCool.1 mph66%30.11 "HgN/A
6:00 PM58 °FCool.3 mph65%30.11 "HgN/A
5:00 PM58 °FCool.3 mph66%30.11 "HgN/A
4:00 PM57 °FCool.3 mph66%30.11 "HgN/A
3:00 PM57 °FCool.3 mph67%30.10 "HgN/A
2:00 PM57 °FCool.5 mph70%30.09 "HgN/A
1:00 PM57 °FCool.3 mph70%30.07 "HgN/A
12:00 PM56 °FCool.5 mph71%30.05 "HgN/A
11:00 AM56 °FCool.6 mph76%30.03 "HgN/A
10:00 AM55 °FCool.7 mph79%30.01 "HgN/A
9:00 AM55 °FCool.7 mph79%29.98 "HgN/A
8:00 AM55 °FCool.8 mph81%29.95 "HgN/A
7:00 AM55 °FCool.8 mph85%29.92 "HgN/A
6:00 AM55 °FCool.7 mph88%29.89 "HgN/A
5:00 AM54 °FCool.7 mph88%29.88 "HgN/A
4:00 AM54 °FCool.9 mph87%29.85 "HgN/A
3:00 AM54 °FCool.15 mph88%29.81 "HgN/A
2:00 AM54 °FCool.17 mph85%29.78 "HgN/A
Weather by CustomWeather, © 2016

See weather overviewHow to use our weather pages